• Join FlightAware (Why Join?)
  • Login
  • US Flag 
11:53PM EDT


 

Airport Tracker/Info


-or-


 

Live Flight TrackerFlight Track Log ✈ AAY855 ✈ 20-Jan-2014 ✈ KSBN - KPIE

Flight Track Log - Related Links

Times and Time Zones

All times are in EST time to prevent confusion due to time zone crossing. See the AAY855 flight status page for this flight to view local times or setup timezone preferences in your user account.

Time Position Orientation Groundspeed Altitude Reporting Facility
EST Latitude Longitude Course Direction KTS MPH feet Rate Location/Type
12:13PM 41.6778 -86.2228 133° Southeast 205 236 4,100  Level Chicago Center
12:14PM 41.6297 -86.1536 133° Southeast 253 291 5,700 1,980 Climbing Chicago Center
12:15PM 41.5753 -86.0697 131° Southeast 300 345 8,200 2,040 Climbing Chicago Center
12:16PM 41.5164 -85.9808 131° Southeast 319 367 10,000 1,440 Climbing Chicago Center
12:17PM 41.4481 -85.8789 132° Southeast 368 423 11,200 1,560 Climbing Chicago Center
12:18PM 41.3528 -85.7419 133° Southeast 424 488 13,300 1,800 Climbing Chicago Center
12:19PM 41.2683 -85.6200 133° Southeast 459 528 15,000 1,800 Climbing Chicago Center
12:20PM 41.1689 -85.5208 143° Southeast 454 522 17,000 1,800 Climbing Chicago Center
12:21PM 41.0678 -85.4078 140° Southeast 470 541 18,800 1,680 Climbing Chicago Center
12:22PM 40.9636 -85.2900 139° Southeast 489 563 20,500 1,980 Climbing Chicago Center
12:23PM 40.8392 -85.1417 138° Southeast 502 578 22,900 1,740 Climbing Chicago Center
12:24PM 40.7217 -85.0697 155° Southeast 475 547 24,200 1,440 Climbing Chicago Center
12:25PM 40.5961 -85.0425 171° South 451 519 25,900 1,620 Climbing Chicago Center
12:26PM 40.5456 -85.0294 169° South 453 521 26,700 1,380 Climbing Indianapolis Center
12:27PM 40.4231 -84.9975 169° South 451 519 28,100 1,320 Climbing Indianapolis Center
12:28PM 40.2775 -84.9597 169° South 446 513 29,500 1,080 Climbing Indianapolis Center
12:29PM 40.1547 -84.9281 169° South 449 517 30,400 720 Climbing Indianapolis Center
12:30PM 40.0256 -84.8947 169° South 453 521 31,000 240 Climbing Indianapolis Center
12:31PM 39.9036 -84.8625 169° South 451 519 31,000  Level Indianapolis Center
12:32PM 39.7831 -84.8314 169° South 445 512 31,000 300 Level Indianapolis Center
12:33PM 39.6606 -84.8000 169° South 448 516 31,700 780 Climbing Indianapolis Center
12:34PM 39.5386 -84.7700 169° South 448 516 32,700 600 Climbing Indianapolis Center
12:35PM 39.4167 -84.7386 169° South 448 516 33,000 120 Climbing Indianapolis Center
12:36PM 39.2961 -84.7075 169° South 446 513 33,000  Level Indianapolis Center
12:37PM 39.1467 -84.6719 170° South 453 521 33,000  Level Indianapolis Center
12:38PM 39.0233 -84.6403 169° South 454 522 33,000  Level Indianapolis Center
12:39PM 38.9014 -84.6111 169° South 452 520 33,000  Level Indianapolis Center
12:40PM 38.7797 -84.5783 168° South 447 514 33,000  Level Indianapolis Center
12:41PM 38.6600 -84.5464 168° South 444 511 33,000  Level Indianapolis Center
12:42PM 38.5147 -84.5178 171° South 442 509 33,000  Level Indianapolis Center
12:43PM 38.3944 -84.4878 169° South 440 506 33,000  Level Indianapolis Center
12:44PM 38.2767 -84.4561 168° South 434 499 33,000  Level Indianapolis Center
12:45PM 38.1553 -84.4286 170° South 439 505 33,000  Level Indianapolis Center
12:46PM 38.0367 -84.3978 168° South 434 499 33,000  Level Indianapolis Center
12:47PM 37.9158 -84.3703 170° South 439 505 33,000  Level Indianapolis Center
12:48PM 37.7950 -84.3403 169° South 442 509 33,000  Level Indianapolis Center
12:49PM 37.6528 -84.3042 169° South 447 514 33,000  Level Indianapolis Center
12:50PM 37.5308 -84.2753 169° South 443 510 33,000  Level Indianapolis Center
12:51PM 37.4100 -84.2456 169° South 442 509 33,000  Level Indianapolis Center
12:52PM 37.2878 -84.2167 169° South 446 513 33,000  Level Indianapolis Center
12:53PM 37.1650 -84.1897 170° South 448 516 33,000  Level Indianapolis Center
12:54PM 37.0425 -84.1606 169° South 448 516 33,000  Level Indianapolis Center
12:55PM 36.9003 -84.1264 169° South 447 514 33,000  Level Indianapolis Center
12:56PM 36.7783 -84.0986 170° South 446 513 33,000  Level Indianapolis Center
12:57PM 36.6567 -84.0700 169° South 445 512 33,000  Level Indianapolis Center
12:58PM 36.5331 -84.0406 169° South 450 518 33,000  Level Indianapolis Center
12:59PM 36.4072 -84.0111 169° South 450 518 33,000  Level Indianapolis Center
01:00PM 36.2844 -83.9842 170° South 446 513 33,000  Level Indianapolis Center
01:01PM 36.1614 -83.9556 169° South 446 513 33,000  Level Indianapolis Center
01:03PM 36.0400 -83.9278 170° South 443 510 33,000  Level Indianapolis Center
01:04PM 35.8944 -83.9019 172° South 438 504 33,000  Level Indianapolis Center
01:05PM 35.7536 -83.9339 190° South 433 498 33,000  Level Atlanta Center
01:06PM 35.6389 -83.9622 191° South 433 498 33,000  Level Atlanta Center
01:07PM 35.5200 -83.9903 191° South 433 498 33,000  Level Atlanta Center
01:08PM 35.4011 -84.0208 192° South 433 498 33,000  Level Atlanta Center
01:09PM 35.2947 -84.0464 191° South 433 498 33,000  Level Atlanta Center
01:10PM 35.1778 -84.0744 191° South 428 493 33,000  Level Atlanta Center
01:11PM 35.0589 -84.1022 191° South 433 498 33,000  Level Atlanta Center
01:12PM 34.9419 -84.1275 190° South 433 498 33,000  Level Atlanta Center
01:13PM 34.8272 -84.1578 192° South 428 493 33,000  Level Atlanta Center
01:14PM 34.7083 -84.1853 191° South 428 493 33,000  Level Atlanta Center
01:15PM 34.5808 -84.2153 191° South 428 493 33,000  Level Atlanta Center
01:16PM 34.4642 -84.2428 191° South 428 493 33,000  Level Atlanta Center
01:17PM 34.3450 -84.2703 191° South 433 498 33,000  Level Atlanta Center
01:18PM 34.2303 -84.2975 191° South 428 493 33,000  Level Atlanta Center
01:19PM 34.1069 -84.3272 191° South 440 506 33,000  Level Atlanta Center
01:20PM 33.9964 -84.3519 191° South 433 498 33,000  Level Atlanta Center
01:21PM 33.8753 -84.3792 191° South 433 498 33,000  Level Atlanta Center
01:22PM 33.7583 -84.4061 191° South 428 493 33,000  Level Atlanta Center
01:23PM 33.6433 -84.4331 191° South 428 493 33,000  Level Atlanta Center
01:24PM 33.5203 -84.4350 181° South 439 505 33,000  Level Atlanta Center
01:25PM 33.4011 -84.4344 180° South 439 505 33,000  Level Atlanta Center
01:26PM 33.2781 -84.4314 179° South 439 505 33,000  Level Atlanta Center
01:27PM 33.1550 -84.4308 180° South 439 505 33,000  Level Atlanta Center
01:28PM 33.0297 -84.4278 179° South 439 505 33,000  Level Atlanta Center
01:29PM 32.9067 -84.4247 179° South 439 505 33,000  Level Atlanta Center
01:30PM 32.7856 -84.4194 178° South 439 505 33,000  Level Atlanta Center
01:31PM 32.6581 -84.4164 179° South 444 511 33,000  Level Atlanta Center
01:32PM 32.5331 -84.4158 180° South 444 511 33,000  Level Atlanta Center
01:33PM 32.3308 -84.4094 178° South 452 520 33,000  Level Jacksonville Center
01:34PM 32.2056 -84.4075 179° South 452 520 33,000  Level Jacksonville Center
01:35PM 32.0803 -84.4031 178° South 452 520 33,000  Level Jacksonville Center
01:36PM 31.9572 -84.4008 179° South 452 520 33,000  Level Jacksonville Center
01:37PM 31.8278 -84.3989 179° South 458 527 33,000  Level Jacksonville Center
01:38PM 31.7044 -84.3969 179° South 458 527 33,000  Level Jacksonville Center
01:39PM 31.5772 -84.3922 178° South 458 527 33,000  Level Jacksonville Center
01:40PM 31.4481 -84.3611 168° South 458 527 33,000  Level Jacksonville Center
01:41PM 31.3233 -84.3250 166° South 463 533 33,000  Level Jacksonville Center
01:42PM 31.1942 -84.2867 166° South 468 539 33,000  Level Jacksonville Center
01:43PM 31.0714 -84.2508 166° South 468 539 33,000  Level Jacksonville Center
01:44PM 30.9425 -84.2150 167° South 473 544 33,000  Level Jacksonville Center
01:45PM 30.8156 -84.1747 165° South 468 539 33,000  Level Jacksonville Center
01:46PM 30.6883 -84.1414 167° South 468 539 33,000  Level Jacksonville Center
01:47PM 30.5614 -84.1061 167° South 468 539 33,000 -60 Level Jacksonville Center
01:48PM 30.4364 -84.0708 166° South 468 539 32,900 -60 Descending Jacksonville Center
01:49PM 30.3075 -84.0306 165° South 468 539 32,900  Level Jacksonville Center
01:50PM 30.1803 -83.9978 167° South 468 539 33,000  Climbing Jacksonville Center
01:51PM 30.0511 -83.9581 165° South 468 539 32,900 -60 Descending Jacksonville Center
01:52PM 29.9178 -83.9256 168° South 474 545 32,900  Level Jacksonville Center
01:53PM 29.7908 -83.8761 161° South 474 545 33,000 -300 Climbing Jacksonville Center
01:54PM 29.6703 -83.7986 151° Southeast 485 558 32,300 -1,020 Descending Jacksonville Center
01:55PM 29.5497 -83.7208 151° Southeast 490 564 31,000 -1,380 Descending Jacksonville Center
01:56PM 29.4333 -83.6461 151° Southeast 490 564 29,600 -1,440 Descending Jacksonville Center
01:57PM 29.3189 -83.5714 150° Southeast 484 557 28,200 -1,440 Descending Jacksonville Center
01:58PM 29.2067 -83.4992 151° Southeast 472 543 26,800 -1,680 Descending Jacksonville Center
01:59PM 29.0964 -83.4319 152° Southeast 461 531 24,900 -1,920 Descending Jacksonville Center
02:00PM 28.9881 -83.3650 152° Southeast 456 525 23,000 -1,860 Descending Jacksonville Center
02:01PM 28.8861 -83.2956 149° Southeast 442 509 21,200 -1,800 Descending Jacksonville Center
02:02PM 28.7839 -83.2314 151° Southeast 429 494 19,500 -1,920 Descending Jacksonville Center
02:04PM 28.5833 -83.1000 150° Southeast 410 472 15,700 -1,860 Descending Tampa TRACON
02:05PM 28.4833 -83.0500 156° South 372 428 14,100 -1,500 Descending Tampa TRACON
02:06PM 28.4000 -82.9833 145° Southeast 347 399 12,800 -1,260 Descending Tampa TRACON
02:07PM 28.3167 -82.9500 161° South 304 350 11,600 -1,440 Descending Tampa TRACON
02:09PM 28.2333 -82.9333 170° South 300 345 9,800 -1,440 Descending Tampa TRACON
02:09PM 28.1500 -82.9000 161° South 291 335 8,800 -1,440 Descending Tampa TRACON
02:10PM 28.0833 -82.8833 168° South 273 314 7,100 -1,800 Descending Tampa TRACON
02:11PM 28.0000 -82.8667 170° South 275 316 5,200 -1,560 Descending Tampa TRACON
02:12PM 27.9333 -82.8333 156° South 263 303 4,000 -900 Descending Tampa TRACON
02:13PM 27.8833 -82.8167 164° South 204 235 3,500 -660 Descending Tampa TRACON
02:14PM 27.8333 -82.8000 164° South 196 226 2,700 -480 Descending Tampa TRACON
02:15PM 27.7833 -82.7667 149° Southeast 194 223 2,600 -300 Descending Tampa TRACON
02:16PM 27.7667 -82.7167 111° Southeast 224 258 2,100 -360 Descending Tampa TRACON
02:17PM 27.7833 -82.6667 69° East 202 232 1,900 -360 Descending Tampa TRACON
02:18PM 27.8333 -82.6833 344° North 167 192 1,400 -720 Descending Tampa TRACON
02:19PM 27.8833 -82.6833 360° North 143 165 500 -900 Descending Tampa TRACON